Snowfall_Accumulation
0.9 0.9 1.1 1.0 1.0 1.2 1.7 2.9 5.2 4.7 1.5 0.3 0.4 0.3 0.5 0.4 0.3 0.5 0.3 0.2 0.3 0.4 0.5 0.4 0.3 0.2 0.2 0.1 0.1 0.0 0.0 0.0 0.1 0.1 0.0 0.1 0.1 0.0
1.1 1.2 1.2 1.2 1.2 1.2 1.5 1.8 3.1 5.8 4.4 0.7 0.4 0.3 0.4 0.5 0.4 0.6 0.5 0.2 0.3 0.3 0.3 0.5 0.3 0.2 0.2 0.1 0.1 0.1 0.0 0.1 0.1 0.1 0.1 0.1 0.1 0.1
1.2 1.5 1.6 1.5 1.5 1.4 1.6 1.9 2.4 3.9 5.4 1.4 0.3 0.3 0.5 0.6 0.5 0.5 0.4 0.3 0.4 0.2 0.2 0.3 0.3 0.3 0.3 0.3 0.2 0.2 0.1 0.1 0.1 0.1 0.1 0.1 0.1 0.1
1.6 1.8 1.8 1.8 2.1 1.9 2.1 2.2 2.3 3.0 4.8 3.6 1.0 0.7 0.6 0.5 0.4 0.4 0.3 0.3 0.4 0.2 0.2 0.3 0.4 0.4 0.5 0.5 0.2 0.2 0.2 0.1 0.1 0.1 0.2 0.1 0.1 0.1
1.9 2.3 2.3 2.6 2.9 2.4 2.6 2.7 2.5 2.3 3.1 4.1 2.4 1.0 0.9 0.6 0.6 0.7 0.5 0.6 0.3 0.2 0.2 0.2 0.3 0.5 0.5 0.5 0.5 0.4 0.3 0.3 0.2 0.2 0.3 0.2 0.2 0.2
2.3 2.7 3.2 3.7 4.3 4.5 4.3 3.8 3.1 3.5 3.6 4.4 3.7 2.3 1.8 1.2 1.6 1.9 1.8 1.0 0.9 0.8 0.8 0.4 0.6 0.6 0.6 0.5 0.4 0.6 0.6 0.5 0.6 0.5 0.5 0.4 0.4 0.3
3.4 3.1 2.9 3.4 4.2 5.3 6.3 6.6 6.3 7.3 6.5 6.6 5.8 4.3 3.3 3.2 3.3 2.6 3.0 2.0 1.3 1.1 1.2 0.9 0.6 0.7 0.6 0.3 0.3 0.3 0.9 0.7 0.7 0.8 0.6 0.5 0.5 0.5
4.8 3.8 3.1 2.8 3.0 2.9 3.8 4.7 5.6 8.7 9.8 9.9 9.2 8.1 5.3 3.5 3.6 3.9 4.9 5.5 4.6 1.4 1.7 1.9 1.3 1.5 0.9 0.8 0.4 0.5 0.8 0.9 1.0 1.0 0.8 0.9 0.8 0.8
4.0 3.5 3.3 2.8 2.8 2.9 3.3 2.7 3.1 4.0 6.4 9.0 11.6 8.9 6.4 5.4 5.7 6.5 6.0 6.8 5.3 3.0 3.0 4.2 2.1 2.2 1.5 1.1 0.6 0.7 0.7 1.2 1.2 1.2 1.2 1.2 1.2 1.1
3.1 3.4 3.7 3.5 3.3 4.0 4.7 5.0 4.4 4.1 4.7 6.7 9.1 7.8 6.4 6.1 6.9 8.9 8.4 8.7 5.4 3.1 3.0 6.4 2.7 2.3 1.6 1.2 0.8 0.7 0.9 1.1 1.5 1.4 1.4 1.4 1.5 1.5
3.0 4.1 4.5 4.3 4.1 4.8 6.8 7.3 5.4 4.1 3.3 4.6 5.7 6.5 5.6 6.0 8.3 11.2 15.0 16.0 12.9 5.1 3.5 6.2 3.7 2.8 2.0 1.9 1.3 1.2 1.2 1.0 1.1 1.3 1.4 1.8 1.9 1.9
3.2 4.0 5.9 5.9 5.7 5.6 7.4 8.6 8.4 5.0 4.3 4.2 4.4 4.4 4.6 5.2 6.2 9.7 12.8 17.1 15.8 11.5 5.4 5.4 5.3 6.5 6.6 2.7 1.9 1.5 1.5 1.5 1.3 1.3 1.4 1.7 2.3 2.3
5.4 5.5 6.0 5.8 5.7 5.9 6.7 8.1 9.2 7.9 7.1 6.7 5.7 4.9 5.0 5.6 6.4 8.1 9.8 13.7 17.0 14.5 8.7 9.2 10.0 9.0 11.2 7.0 3.0 2.6 2.3 2.0 1.7 1.5 1.3 1.4 1.9 2.6
6.6 5.2 5.7 5.9 6.3 5.8 5.7 5.2 5.9 6.9 7.6 7.2 6.6 5.6 5.2 5.7 6.6 7.8 10.0 11.3 12.1 12.2 9.4 10.8 15.3 13.2 14.9 12.5 7.5 4.3 3.4 2.8 2.8 3.0 2.7 2.1 1.7 2.2
5.8 6.6 6.1 5.5 5.2 4.3 3.7 4.6 4.5 5.5 6.6 7.2 6.5 5.4 5.0 4.6 5.3 6.6 8.1 9.6 10.0 10.0 8.7 8.3 11.1 11.4 14.8 15.8 10.5 6.9 5.6 4.5 3.8 4.0 3.9 3.6 3.2 3.1
5.1 5.4 5.3 4.4 3.7 3.2 3.1 3.5 4.1 5.1 6.9 7.6 6.6 5.2 4.7 5.1 6.0 6.8 8.6 10.0 12.4 11.4 9.8 8.1 8.1 10.9 14.2 12.0 11.5 9.5 7.2 7.4 5.8 5.1 4.6 4.6 3.9 3.3
8.8 8.6 7.1 5.8 5.3 4.6 4.0 3.7 4.1 5.0 6.0 6.2 6.6 6.8 6.5 6.3 6.6 7.0 8.9 10.9 13.1 12.8 12.2 10.9 10.7 11.2 12.7 13.5 13.7 10.5 8.1 7.2 6.7 6.6 6.1 6.0 4.8 4.1
8.9 9.8 7.5 6.4 6.2 5.7 5.1 4.9 4.6 5.3 5.9 6.2 6.8 7.4 7.9 7.8 7.9 7.6 9.4 11.6 13.1 12.6 12.5 12.4 14.0 16.2 17.0 16.2 13.8 11.6 9.3 7.7 6.8 6.8 6.6 7.5 6.4 4.5
7.3 7.4 6.5 6.4 6.2 6.3 6.1 6.0 5.8 5.6 6.0 7.0 7.4 7.9 8.4 9.1 9.3 9.1 9.3 10.8 11.8 11.9 12.3 13.0 15.7 21.0 24.7 20.9 14.7 11.7 11.1 9.1 8.1 7.6 6.8 7.3 7.9 5.8
5.3 6.3 6.4 6.1 6.9 6.8 6.7 6.6 6.3 6.2 6.7 7.3 7.6 7.6 8.4 9.9 10.1 9.7 10.0 11.1 12.1 12.6 13.0 13.3 15.9 19.6 24.1 21.1 17.9 14.8 10.1 10.9 10.6 10.0 7.7 6.6 6.0 4.9
5.7 5.9 6.1 6.5 6.9 6.9 7.0 7.0 7.4 7.4 7.1 7.5 7.7 7.5 8.1 10.1 10.3 9.4 9.7 10.7 12.8 14.4 14.6 14.0 12.9 14.5 17.9 20.2 21.7 18.9 15.3 10.4 8.9 11.3 11.3 11.2 10.3 8.5
6.1 6.4 6.1 6.2 6.3 6.9 7.1 7.2 7.5 7.1 7.0 7.4 7.7 7.7 8.2 9.5 10.1 9.9 10.5 11.7 12.6 13.1 13.5 13.3 12.4 15.7 20.9 23.9 21.9 18.1 17.2 14.5 12.6 8.7 8.7 10.8 15.6 16.2
7.4 7.4 6.7 6.3 6.4 6.7 7.1 7.2 7.4 6.9 6.8 7.3 7.9 8.2 8.6 9.7 9.8 10.5 10.9 11.3 12.3 12.6 13.1 14.0 14.8 17.2 19.7 19.9 20.5 19.1 17.4 14.5 14.1 13.8 13.9 7.6 6.6 7.2